Location: Betra
(48.4113°N, 8.6634°E)
Time: 14:39:32
(UTC+00:00)

ATLAS 2AS CENTAUR R/B - Pass Details

Date: 23 May 2024
Orbit: 1036 x 1174 km, 63.7° (Epoch: 28 April)

Event Time Altitude Azimuth Distance (km) Brightness Sun altitude
Rises 01:30:49 0° 318° (NW) 3,913 5.9 -15.2°
Reaches altitude 10° 01:33:37 10° 323° (NW) 2,934 5.3 -14.9°
Maximum altitude 01:40:23 54° 40° (NE) 1,269 3.5 -14.3°
Drops below altitude 10° 01:46:58 10° 117° (ESE) 2,848 5.0 -13.7°
Sets 01:49:38 0° 122° (ESE) 3,791 5.6 -13.5°
